| time (UTC) | temp F | wind direction | speed MPH | gust MPH | rain 1hr in | rain 24hr in | rain mn in | humidity % | barometer mb |
| 20260505153050 | 50 | 337 | 2.0 | 11.0 | 0.00 | 0.00 | 0.00 | 49 | 1011.8 |
| 20260505151545 | 51 | 317 | 1.0 | 7.0 | 0.00 | 0.00 | 0.00 | 47 | 1011.8 |
| 20260505124536 | 51 | 223 | 3.0 | 9.0 | 0.00 | 0.00 | 0.00 | 48 | 1011.9 |
| 20260505123032 | 52 | 259 | 3.0 | 11.0 | 0.00 | 0.00 | 0.00 | 45 | 1011.8 |
| 20260505121536 | 52 | 284 | 4.0 | 11.0 | 0.00 | 0.00 | 0.00 | 47 | 1011.8 |
| 20260505120032 | 52 | 350 | 2.0 | 11.0 | 0.00 | 0.00 | 0.00 | 47 | 1011.7 |
| 20260505114538 | 52 | 275 | 3.0 | 11.0 | 0.00 | 0.00 | 0.00 | 47 | 1011.8 |
| 20260505113030 | 52 | 299 | 2.0 | 9.0 | 0.00 | 0.00 | 0.00 | 48 | 1011.7 |
| 20260505111535 | 53 | 269 | 2.0 | 9.0 | 0.00 | 0.00 | 0.00 | 47 | 1011.7 |
| 20260505101523 | 52 | 295 | 2.0 | 9.0 | 0.00 | 0.00 | 0.00 | 45 | 1011.5 |
| 20260505100020 | 50 | 296 | 3.0 | 10.0 | 0.00 | 0.00 | 0.00 | 47 | 1011.6 |
| 20260505094518 | 49 | 318 | 2.0 | 12.0 | 0.00 | 0.00 | 0.00 | 47 | 1011.5 |
| 20260505093016 | 50 | 234 | 4.0 | 12.0 | 0.00 | 0.00 | 0.00 | 50 | 1011.6 |
| 20260505091512 | 51 | 258 | 2.0 | 6.0 | 0.00 | 0.00 | 0.00 | 47 | 1011.4 |
| 20260505090010 | 50 | 254 | 2.0 | 7.0 | 0.00 | 0.00 | 0.00 | 45 | 1011.3 |
| 20260505084507 | 49 | 310 | 1.0 | 7.0 | 0.00 | 0.00 | 0.00 | 47 | 1011.0 |
| 20260505083003 | 49 | 224 | 2.0 | 9.0 | 0.00 | 0.00 | 0.00 | 46 | 1011.0 |
| 20260505081605 | 49 | 248 | 3.0 | 9.0 | 0.00 | 0.00 | 0.00 | 46 | 1010.9 |
| 20260505080057 | 49 | 315 | 2.0 | 12.0 | 0.00 | 0.00 | 0.00 | 47 | 1010.9 |
| 20260505074608 | 49 | 275 | 2.0 | 9.0 | 0.00 | 0.00 | 0.00 | 45 | 1010.9 |
| 20260505073053 | 48 | 317 | 2.0 | 9.0 | 0.00 | 0.00 | 0.00 | 50 | 1010.7 |
| 20260505071545 | 47 | 272 | 2.0 | 5.0 | 0.00 | 0.00 | 0.00 | 52 | 1010.5 |
| 20260505070042 | 46 | 229 | 2.0 | 7.0 | 0.00 | 0.00 | 0.00 | 55 | 1010.4 |
| 20260505064539 | 46 | 346 | 3.0 | 8.0 | 0.00 | 0.00 | 0.00 | 57 | 1010.2 |
| 20260505063042 | 46 | 230 | 1.0 | 8.0 | 0.00 | 0.00 | 0.00 | 58 | 1010.2 |
| 20260505061555 | 46 | 313 | 3.0 | 8.0 | 0.00 | 0.00 | 0.00 | 57 | 1010.2 |
| 20260505060034 | 46 | 26 | 3.0 | 9.0 | 0.00 | 0.00 | 0.00 | 58 | 1010.0 |
| 20260505054532 | 45 | 352 | 1.0 | 9.0 | 0.00 | 0.00 | 0.00 | 61 | 1010.0 |
| 20260505053030 | 45 | 359 | 3.0 | 6.0 | 0.00 | 0.00 | 0.00 | 64 | 1009.9 |
| 20260505051532 | 45 | 359 | 2.0 | 6.0 | 0.00 | 0.00 | 0.00 | 64 | 1009.9 |
| 20260505041523 | 44 | 15 | 1.0 | 7.0 | 0.00 | 0.00 | 0.00 | 67 | 1009.4 |
| 20260505040023 | 44 | 281 | 3.0 | 9.0 | 0.00 | 0.00 | 0.00 | 67 | 1009.3 |
| 20260505034546 | 45 | 325 | 1.0 | 10.0 | 0.00 | 0.00 | 0.00 | 69 | 1009.2 |
| 20260504231541 | 46 | 252 | 9.0 | 17.0 | 0.00 | 0.06 | 0.00 | 84 | 1008.8 |
| 20260504230040 | 46 | 240 | 9.0 | 18.0 | 0.00 | 0.06 | 0.00 | 84 | 1008.9 |
| 20260504224538 | 46 | 238 | 11.0 | 19.0 | 0.00 | 0.06 | 0.00 | 84 | 1009.0 |
| 20260504223038 | 47 | 200 | 8.0 | 21.0 | 0.00 | 0.06 | 0.00 | 83 | 1008.9 |
| 20260504221538 | 47 | 225 | 6.0 | 17.0 | 0.00 | 0.06 | 0.00 | 84 | 1009.0 |
| 20260504220032 | 47 | 223 | 8.0 | 21.0 | 0.00 | 0.06 | 0.00 | 83 | 1009.0 |
| 20260504214530 | 47 | 246 | 7.0 | 21.0 | 0.00 | 0.06 | 0.06 | 83 | 1009.1 |
| 20260504213029 | 47 | 248 | 10.0 | 24.0 | 0.00 | 0.06 | 0.06 | 83 | 1009.0 |
| 20260504211527 | 47 | 232 | 10.0 | 20.0 | 0.00 | 0.06 | 0.06 | 82 | 1008.9 |
| 20260504210028 | 47 | 231 | 9.0 | 24.0 | 0.00 | 0.06 | 0.06 | 82 | 1008.9 |
| 20260504204531 | 47 | 256 | 10.0 | 20.0 | 0.00 | 0.06 | 0.06 | 82 | 1008.9 |
| 20260504203026 | 47 | 283 | 15.0 | 25.0 | 0.00 | 0.06 | 0.06 | 82 | 1008.8 |
| 20260504201523 | 48 | 275 | 8.0 | 24.0 | 0.00 | 0.06 | 0.06 | 81 | 1008.8 |
| 20260504200022 | 48 | 223 | 10.0 | 20.0 | 0.00 | 0.06 | 0.06 | 80 | 1008.8 |
| 20260504194520 | 48 | 278 | 10.0 | 22.0 | 0.00 | 0.06 | 0.06 | 79 | 1009.0 |
| 20260504193019 | 48 | 271 | 9.0 | 22.0 | 0.00 | 0.06 | 0.06 | 78 | 1008.9 |
| 20260504191518 | 48 | 250 | 10.0 | 21.0 | 0.00 | 0.06 | 0.06 | 77 | 1008.9 |
| 20260504190019 | 48 | 244 | 9.0 | 24.0 | 0.00 | 0.06 | 0.06 | 76 | 1008.9 |
| 20260504184522 | 49 | 240 | 13.0 | 21.0 | 0.00 | 0.06 | 0.06 | 75 | 1008.9 |
| 20260504183014 | 49 | 236 | 10.0 | 20.0 | 0.00 | 0.06 | 0.06 | 75 | 1008.8 |
| 20260504181515 | 49 | 222 | 8.0 | 21.0 | 0.00 | 0.06 | 0.06 | 73 | 1008.9 |
| 20260504180012 | 50 | 235 | 12.0 | 22.0 | 0.00 | 0.06 | 0.06 | 73 | 1008.7 |
| 20260504174509 | 50 | 233 | 13.0 | 20.0 | 0.00 | 0.06 | 0.06 | 73 | 1008.7 |
| 20260504173010 | 51 | 236 | 11.0 | 21.0 | 0.00 | 0.06 | 0.06 | 74 | 1008.9 |
| 20260504171507 | 51 | 250 | 9.0 | 18.0 | 0.00 | 0.06 | 0.06 | 73 | 1008.9 |